SCP
1 1 1 1 1 1 1 1 1 1 1 1 1 1 1 0 0 0 0 0 0 0 0 0 0 0 0 0 0 0 0 0 0 0 0 0 0 0 0 0 0 0 0
1 1 1 1 1 1 1 1 1 1 1 1 1 1 1 0 0 0 0 0 0 0 0 0 0 0 0 0 0 0 0 0 0 0 0 0 0 0 0 0 0 0 0
1 1 1 1 1 1 1 1 1 1 1 1 1 1 1 1 0 0 0 0 0 0 0 0 0 0 0 0 0 0 0 0 0 0 0 0 0 0 0 0 0 0 0
1 1 1 1 1 1 1 1 1 1 1 1 1 1 1 0 0 0 0 0 0 0 0 0 0 0 0 0 0 0 0 0 0 0 0 0 0 0 0 0 0 0 0
1 1 1 1 1 1 1 1 1 1 1 1 1 1 1 1 0 0 0 0 0 0 0 0 0 0 0 0 0 0 0 0 0 0 0 0 0 0 0 0 0 0 0
1 1 1 1 1 1 1 1 1 1 1 1 1 1 1 1 1 0 0 0 0 0 0 0 0 0 0 0 0 0 0 0 0 0 0 0 0 0 0 0 0 0 0
0 1 1 1 1 1 1 1 1 1 1 1 1 1 1 1 1 0 0 0 0 0 0 0 0 0 0 0 0 0 0 0 0 0 0 0 0 0 0 0 0 0 0
0 0 0 0 0 0 0 1 1 1 1 1 1 1 1 0 0 0 0 0 0 0 0 0 0 0 0 0 0 0 0 0 0 0 0 0 0 0 0 0 0 0 0
0 0 0 0 0 0 0 0 1 0 0 0 0 0 0 1 1 0 0 0 0 0 0 0 0 0 0 0 0 0 0 0 0 0 0 0 0 0 0 0 0 0 0
0 0 0 0 0 0 0 0 0 0 0 0 0 0 0 1 1 0 0 0 0 0 0 0 0 0 0 0 0 0 0 0 0 0 0 0 0 0 0 0 0 0 0
0 0 0 0 0 0 0 0 0 0 0 0 0 0 0 0 0 0 0 0 0 0 0 0 0 0 0 0 0 0 0 0 0 0 0 0 0 0 0 0 0 0 0
0 0 0 0 0 0 0 0 0 0 0 0 0 0 0 0 0 0 0 0 0 0 0 0 0 0 0 0 0 0 0 0 0 0 0 0 0 0 0 0 0 0 0
0 0 0 0 0 0 0 0 0 0 0 0 0 0 0 0 0 0 0 0 0 0 0 0 0 0 0 0 0 0 0 0 0 0 0 0 0 0 0 0 0 0 0
0 0 0 0 0 0 0 0 0 0 0 0 0 0 0 0 0 0 0 0 0 0 0 0 0 0 0 0 0 0 0 0 0 0 0 0 0 0 0 0 0 0 0
0 0 0 0 0 0 0 0 0 0 0 0 0 0 0 0 0 0 0 0 0 0 0 0 0 0 0 0 0 0 0 0 0 0 0 0 0 0 0 0 0 0 0
0 0 0 0 0 0 0 0 0 0 0 0 0 0 0 0 0 0 0 0 0 0 0 0 0 0 0 0 0 0 0 0 0 0 0 0 0 0 0 0 0 0 0
0 0 0 0 0 0 0 0 0 0 0 0 0 0 0 0 0 0 0 0 0 0 0 0 0 0 0 0 0 0 0 0 0 0 0 0 0 0 0 0 0 0 0
0 0 0 0 0 0 0 0 0 0 0 0 0 0 0 0 0 0 0 0 0 0 0 0 0 0 0 0 0 0 0 0 0 0 0 0 0 0 0 0 0 0 0
0 0 0 0 0 0 0 0 0 0 0 0 0 0 1 1 0 0 1 1 0 0 0 0 0 0 0 0 0 0 0 0 0 0 0 0 0 0 0 0 0 0 0
0 0 0 0 1 1 1 0 0 0 0 0 1 1 1 1 1 1 1 1 1 0 0 0 0 0 0 0 0 0 0 0 0 0 0 0 0 0 0 0 0 0 0
0 0 1 1 1 1 1 1 1 1 1 1 1 1 1 1 1 1 1 1 1 1 1 0 0 0 0 0 0 0 0 0 0 0 0 0 0 0 0 0 0 0 0
0 0 1 1 1 1 1 1 1 1 1 1 1 1 1 1 1 1 1 1 1 1 1 1 1 1 0 0 0 0 0 0 0 0 0 0 0 0 0 0 0 0 0
0 0 1 1 1 1 1 1 1 1 1 1 1 1 1 1 1 1 1 1 1 1 1 1 1 0 0 0 0 0 0 0 0 0 0 0 0 0 0 0 0 0 0
0 0 1 1 1 1 1 1 1 1 1 1 1 1 1 1 1 1 1 1 1 1 1 1 0 0 0 0 0 0 0 0 0 0 0 0 0 0 0 0 0 0 0
0 0 1 1 1 1 1 1 1 1 1 1 1 1 1 1 1 1 1 0 0 0 0 0 0 0 0 0 0 0 0 0 0 0 0 0 0 0 0 0 0 0 0
0 1 1 1 1 1 1 1 1 1 1 1 1 1 1 1 1 1 1 0 0 0 0 0 0 0 0 0 0 0 0 0 0 0 0 0 0 0 0 0 0 0 0
Wind_Speed
11 12 13 12 12 12 13 13 12 12 10 8 8 8 7 6 5 5 6 6 6 5 4 3 4 3 3 2 4 3 4 2 1 2 3 3 3 3 2 1 1 3 2
12 13 14 14 14 14 14 14 13 12 11 9 7 6 6 6 6 5 6 7 6 6 5 3 4 3 3 3 3 2 2 2 2 3 3 4 5 4 3 2 2 2 2
14 14 15 15 15 15 15 13 13 13 12 11 8 7 6 6 6 7 6 7 7 6 4 5 3 3 4 3 3 4 4 2 3 2 3 3 2 4 4 2 2 2 1
13 14 16 16 16 15 14 14 14 13 13 12 11 12 9 8 8 7 6 7 7 6 6 5 4 3 3 3 4 3 3 3 3 3 2 3 4 2 3 4 4 3 2
13 14 15 16 15 15 14 14 14 13 13 13 12 12 10 8 7 8 8 7 7 6 6 5 4 4 3 3 2 2 3 3 3 2 3 2 2 4 3 2 3 3 3
12 13 14 14 14 14 13 14 15 14 14 14 13 13 12 11 10 10 9 8 6 6 7 6 5 4 3 4 3 3 3 1 1 2 2 2 3 3 3 3 4 3 2
12 12 14 14 14 15 15 15 16 15 15 15 14 13 12 12 12 11 10 8 7 7 7 6 5 4 4 4 3 3 2 2 2 2 2 1 2 2 3 3 2 2 2
12 12 14 14 15 15 15 16 16 15 15 15 14 13 13 10 9 10 9 9 7 7 8 7 6 5 5 5 4 4 4 3 2 2 0 1 1 1 2 3 3 3 3
12 12 13 14 14 15 15 16 16 15 15 15 14 13 13 11 10 11 9 8 6 7 9 8 7 6 6 5 5 3 3 4 3 3 4 2 1 1 1 2 3 4 4
11 12 12 12 12 13 14 15 15 15 14 14 13 12 12 12 10 10 10 9 8 8 9 9 8 7 7 6 5 5 4 4 3 1 1 2 2 1 1 1 2 3 4
11 11 11 11 11 12 14 14 14 14 14 14 13 13 13 12 11 10 11 10 9 10 10 9 8 8 8 7 6 5 5 5 4 4 4 3 1 2 2 2 2 2 3
11 11 11 11 11 12 13 14 14 14 14 14 13 13 13 12 12 11 11 11 10 10 10 9 9 9 8 8 7 7 6 6 6 5 5 5 4 3 3 2 2 2 2
11 11 11 11 12 13 13 13 14 14 14 14 14 13 13 13 12 12 11 11 11 10 10 10 10 9 9 8 8 7 7 7 6 6 6 5 5 5 3 4 3 3 3
11 12 12 12 12 13 13 14 13 14 14 13 13 13 13 13 12 12 12 11 11 11 11 10 10 9 9 9 9 8 8 7 7 6 6 6 6 6 5 5 5 4 4
12 13 13 13 13 13 14 14 14 14 14 14 13 13 13 12 12 12 12 12 11 11 10 10 10 10 9 9 10 9 9 8 8 7 7 7 5 3 4 5 4 5 5
12 14 14 14 14 15 15 15 14 14 14 14 14 13 13 13 13 12 12 12 11 11 11 11 11 11 9 8 8 8 9 8 9 8 8 8 8 8 9 8 7 7 7
10 13 14 14 14 15 15 15 15 14 14 14 14 14 14 14 14 13 13 13 12 12 11 11 11 11 9 10 11 10 9 9 9 9 8 8 7 9 9 10 12 11 12
7 10 12 13 13 14 14 14 15 15 15 15 14 14 14 14 13 13 13 12 11 11 11 11 12 11 10 13 12 11 11 10 9 10 10 9 8 8 8 8 9 10 10
5 6 9 12 12 13 14 15 15 16 15 15 15 15 14 14 14 14 13 12 11 11 11 11 12 12 10 13 14 12 10 10 11 11 11 10 10 7 6 9 10 10 9
3 5 7 10 11 12 14 15 15 15 15 15 14 14 14 14 14 14 13 12 11 11 11 11 11 12 11 13 15 14 10 10 10 9 10 10 10 6 9 10 10 10 9
2 4 7 8 9 11 13 14 14 14 14 13 13 13 13 13 13 12 11 11 11 11 11 11 11 11 11 12 15 16 10 10 9 8 8 7 13 11 11 10 10 9 8
1 4 6 7 8 10 12 12 12 11 11 11 11 12 12 12 11 11 11 11 11 11 10 10 10 9 9 9 13 16 15 11 9 8 7 5 10 12 11 10 9 8 7
2 4 6 7 7 9 10 11 10 10 10 11 11 10 11 11 10 11 11 10 10 9 9 9 9 8 7 8 11 15 15 14 10 7 4 2 6 8 9 12 10 8 8
1 3 6 7 7 7 8 7 8 9 10 10 10 9 9 8 8 6 7 8 8 8 8 8 8 7 6 6 8 9 9 11 10 9 7 7 7 8 7 6 8 9 8
2 2 4 6 6 6 6 6 6 8 9 9 8 8 8 7 7 6 4 5 5 5 6 6 6 6 6 5 5 5 6 6 6 6 7 7 7 7 7 7 7 7 7
4 5 6 6 6 6 5 4 5 6 7 7 7 6 6 6 6 6 5 3 2 4 3 1 0 2 2 5 6 5 3 2 3 5 6 7 6 6 6 5 6 6 6
Wind_Direction
184 179 176 173 171 172 171 171 171 170 168 167 172 170 170 169 168 169 158 167 172 173 191 169 155 204 170 173 176 182 166 185 188 201 173 159 160 147 165 192 173 157 149
181 178 176 175 175 175 174 175 178 176 176 172 172 173 166 169 167 165 159 172 173 175 179 175 183 182 164 174 181 212 223 168 202 246 214 185 164 176 144 163 169 159 166
189 183 182 181 181 179 179 178 178 178 177 170 168 162 159 169 169 170 168 173 172 172 172 177 186 178 199 168 192 200 217 206 188 261 278 260 190 153 150 138 123 142 166
193 187 184 184 184 182 180 179 177 176 174 173 176 175 178 178 174 172 163 166 169 169 169 175 172 189 183 156 198 181 213 229 212 183 265 324 353 275 169 171 151 146 153
193 189 186 186 185 182 180 178 176 178 176 181 181 185 185 179 168 166 159 169 166 173 174 171 170 181 181 160 177 162 236 225 250 223 204 203 219 261 266 196 168 173 161
190 188 185 183 182 181 180 178 178 181 180 184 186 190 185 178 170 170 166 174 168 174 174 171 175 186 170 161 174 182 189 249 299 282 250 238 241 241 250 234 209 193 159
184 185 184 183 181 182 182 180 180 182 183 186 186 187 184 181 178 176 175 179 175 174 168 175 179 177 161 164 169 178 179 183 193 235 245 264 291 294 280 266 235 216 187
182 184 186 185 185 185 184 182 182 184 184 185 183 182 182 185 182 183 178 182 182 171 163 175 176 172 172 171 168 180 171 165 183 187 281 250 244 279 274 277 263 235 215
183 184 185 187 189 186 186 185 183 183 184 185 181 182 186 188 180 176 182 180 176 164 168 176 174 174 174 171 182 171 170 166 188 174 179 223 158 248 280 278 281 282 264
183 184 185 187 188 185 184 184 184 184 183 182 181 180 184 184 178 180 180 175 172 167 171 175 176 176 175 177 189 176 165 177 182 195 165 234 200 182 231 254 268 285 292
182 181 181 181 182 184 182 180 181 180 180 180 180 179 181 179 179 181 181 178 176 175 177 176 179 181 182 182 189 197 175 192 184 190 185 202 246 229 221 223 241 256 268
180 176 172 171 177 181 180 178 179 179 179 176 178 180 178 178 182 184 184 181 180 182 181 180 184 188 188 188 193 199 192 197 196 198 197 202 194 204 253 251 250 255 281
180 174 171 172 177 179 178 177 179 179 177 175 178 178 178 181 186 186 184 184 183 183 183 185 190 193 192 193 199 203 202 204 207 205 207 209 207 216 219 237 241 237 232
182 179 176 177 178 178 176 177 179 178 176 178 180 180 182 183 186 186 184 185 185 185 187 190 195 197 198 199 201 204 206 209 211 213 217 219 218 220 222 226 235 250 255
186 185 182 180 179 178 179 180 180 178 178 179 182 183 183 183 185 185 185 185 187 190 190 193 197 201 203 205 202 203 205 208 213 215 219 223 227 250 253 260 247 243 250
192 189 187 183 182 182 182 181 181 180 180 183 183 183 183 183 186 186 185 186 190 195 193 198 200 204 209 182 190 215 211 211 217 219 221 221 211 221 229 255 269 275 264
199 193 191 189 187 186 184 182 180 178 182 186 185 182 184 186 188 188 186 188 191 194 197 200 204 208 205 172 187 210 228 223 222 224 226 233 219 210 227 221 225 240 246
208 199 195 191 189 187 185 183 179 180 185 187 187 185 186 187 188 189 190 191 192 195 199 203 206 210 203 178 189 198 224 235 232 231 230 234 239 228 232 241 237 238 231
219 208 201 193 188 187 183 183 183 184 188 190 190 188 188 188 189 191 192 192 195 198 201 204 208 212 205 183 188 194 220 229 234 235 234 234 237 215 208 241 249 252 252
221 203 196 189 184 185 182 184 186 187 192 193 192 189 190 192 193 194 194 193 196 202 204 206 208 212 214 187 186 195 225 230 232 228 230 227 237 210 194 233 246 253 260
222 191 185 181 179 178 179 186 188 191 194 193 191 190 191 195 197 194 193 193 196 201 208 207 207 211 214 191 186 195 224 234 233 233 228 221 196 208 207 226 245 254 268
201 174 169 170 168 170 175 183 190 190 188 188 189 191 193 197 194 192 192 194 197 199 204 209 212 210 208 208 191 195 214 242 244 243 244 225 175 195 208 221 240 252 258
168 163 157 156 159 167 176 185 188 185 182 183 186 188 190 196 193 189 189 191 195 203 204 204 210 212 204 194 188 193 207 220 238 250 258 243 173 196 214 225 232 237 242
115 153 153 153 155 163 173 182 178 178 180 182 183 183 182 182 183 188 192 194 194 201 205 206 208 207 202 204 190 192 200 209 226 244 233 210 209 229 254 238 219 229 243
59 122 139 142 142 149 160 170 167 169 175 177 175 175 174 173 170 176 188 200 198 202 206 208 208 208 208 198 186 196 199 204 208 216 226 231 226 224 229 235 237 238 239
63 87 103 112 119 123 128 136 146 155 160 162 167 171 171 167 171 168 163 89 71 97 120 85 172 179 132 129 145 168 192 189 176 211 232 236 239 244 249 249 248 244 247